AirNav   Duncan Aviation - Near you to keep you flying
 
 647 users online  

TF8 Tinley Park Helistop
Chicago/Tinley Park, Illinois, USA

GOING TO CHICAGO/TINLEY PARK?


FAA INFORMATION EFFECTIVE 14 JULY 2022

Location

FAA Identifier: TF8
Lat/Long: 41-33-33.0000N 087-48-21.0000W
41-33.550000N 087-48.350000W
41.5591667,-87.8058333
(estimated)
Elevation: 760 ft. / 232 m (estimated)
Variation: 02W (1995)
From city: 20 miles SSW of central business district of the associated city
Time zone: UTC -5 (UTC -6 during Standard Time)
Zip code: 60477

Heliport Operations

Heliport use: Open to the public
Activation date: 02/1999
Control tower: no
ARTCC: CHICAGO CENTER
FSS: KANKAKEE FLIGHT SERVICE STATION
NOTAMs facility: IKK (NOTAM-D service available)
Attendance: UNATTENDED
Wind indicator: lighted
Segmented circle: no
Lights: SS-SR

Heliport Communications

CTAF: 122.9
WX AWOS-AV at C56 (12 nm SE): 119.125 (708-534-5256)
WX AWOS-3PT at IGQ (12 nm E): 119.275 (708-889-6319)
WX AWOS-3 at LOT (13 nm W): 118.525 (815-588-4802)
WX ASOS at MDW (14 nm N): PHONE 773-884-4424
WX AWOS-3 at JOT (17 nm W): 119.975 (815-730-9560)
WX AWOS-3PT at GYY (18 nm E): 134.575 (219-944-0010)

Nearby radio navigation aids

VOR radial/distance  VOR name  Freq  Var
CGTr284/10.9CHICAGO HEIGHTS VORTAC114.2002E
EONr356/17.4PEOTONE VORTAC113.2002E
JOTr086/23.0JOLIET VOR/DME112.3002E
DPAr127/31.5DUPAGE VOR/DME108.4002E

Heliport Services

Parking: tiedowns

Runway Information

Helipad H1

Dimensions: 40 x 40 ft. / 12 x 12 m
60 FT BY 60 FT HELICOPTER PARKING PAD LOCATED 75 FT NORTH OF LNDG PAD.
Surface: asphalt, in good condition
Runway edge lights: PERI
Traffic pattern: leftleft

Heliport Ownership and Management from official FAA records

Ownership: Publicly-owned
Owner: VILLAGE OF TINLEY PARK
16250 S. OAK PARK AVENUE
TINLEY PARK, IL 60477
Phone 708-444-5000
24 HR NON-EMERGENCY NUMBER 708-444-5300.
Manager: PAT CARR, DIR EMER MGMT
17355 S. 68TH CT
TINLEY PARK, IL 60477
Phone 708-444-5601
24 HR DISPATCH CTR 708-444-5300

Heliport Operational Statistics

Aircraft operations: 50/year *
100% transient general aviation
* for 12-month period ending 31 May 2021

Additional Remarks

32 FT UNLIT PLINES 95 FT SOUTH; 40 FT BLDG 120 FT NW; & 33 FT LGTD POLES 293 FT W; 90 FT LGTD TWR 250 FT NW OF PAD.
INGRESS/EGRESS ROUTES ARE 090 DEGS & 270 DEGS.
FOR CD CTC CHICAGO APCH AT 847-289-0926.
+31 FT TREES 190 FT E OF FATO AND 100' N OF APCH CNTRLN RESULTING IN 5:1 APCH CLNC TO THE E

Instrument Procedures

There are no published instrument procedures at TF8.

Some nearby airports with instrument procedures:

C56 - Bult Field Airport (12 nm SE)
KIGQ - Lansing Municipal Airport (12 nm E)
KLOT - Lewis University Airport (13 nm W)
KMDW - Chicago Midway International Airport (14 nm N)
1C5 - Bolingbrook's Clow International Airport (17 nm NW)
KGYY - Gary/Chicago International Airport (18 nm E)
05C - Griffith-Merrillville Airport (18 nm E)
 
Loc | Ops | Rwys | IFR | FBO | Links
Com | Nav | Svcs | Stats | Notes
Area around TF8 (Tinley Park Helistop)
 
Road maps at: MapQuest Bing Google
 
Aerial photo
No photo
 
Sectional chart

 
Airport distance calculator
Flying to Tinley Park Helistop? Find the distance to fly.

From to TF8

Sunrise and sunset
Times for 11-Aug-2022
 Local
(UTC-5)
 Zulu
(UTC)
Morning civil twilight05:2710:27
Sunrise05:5710:57
Sunset19:5600:56
Evening civil twilight20:2601:26

Current date and time
Zulu (UTC)  11-Aug-2022 05:49:38
Local (UTC-5)  11-Aug-2022 00:49:38
 
METAR
KIGQ 
12nm E 
110535Z AUTO 00000KT 10SM CLR 19/19 A3013 RMK AO2 T01880188
KMDW 
14nm N 
110453Z 26005KT 10SM CLR 24/18 A3012 RMK AO2 SLP189 T02440178
KJOT 
16nm W 
110535Z AUTO 00000KT 10SM CLR 22/19 A3013 RMK AO2 T02150191
KGYY 
18nm E 
110535Z AUTO 00000KT 10SM CLR 17/16 A3013 RMK AO2 T01710163 PWINO
TAF
KMDW 
14nm N 
102056Z 1021/1124 09008KT P6SM FEW050 FM110200 26004KT P6SM SKC FM110930 03011G19KT P6SM SCT025 BKN050
KGYY 
18nm E 
102056Z 1021/1118 05007KT P6SM SKC FM110200 25004KT P6SM SKC FM111000 04011G19KT P6SM SCT025 BKN050
NOTAMs
Click for the latest NOTAMs
NOTAMs are issued by the DoD/FAA and will open in a separate window not controlled by AirNav.

 

 
 

Would you like to see your business listed on this page?

 If your business provides an interesting product or service to pilots, flight crews, aircraft, or users of the Tinley Park Helistop, you should consider listing it here.  To start the listing process, click on the button below
 
Add a business
 

Other Pages about Tinley Park Helistop

Update a link
 
Copyright © AirNav, LLC. All rights reserved. Privacy Policy  Contact